Vorticity
5 6 6 7 7 7 7 7 7 7 7 7 6 7 6 6 6 5 5 5 5 5 5 5 5 5 5 5 5 5 5 6 6
6 6 6 6 5 5 5 4 5 5 7 6 4 3 2 2 3 4 5 4 4 4 4 4 5 5 5 5 6 6 6 6 6
7 7 7 6 6 6 6 6 7 5 3 2 2 4 7 7 7 7 7 9 9 7 5 5 5 5 6 6 6 6 6 6 7
7 7 7 7 7 7 6 5 4 4 6 7 7 6 6 5 6 6 6 7 8 10 10 9 8 7 6 6 6 6 6 6 7
7 7 7 7 7 7 7 6 7 6 5 4 4 4 5 5 5 5 6 6 8 8 7 6 7 7 6 6 7 7 7 7 6
7 6 5 4 5 5 4 4 4 4 3 2 2 2 2 3 2 3 5 5 5 8 7 6 6 6 6 7 7 7 7 7 8
7 7 4 6 7 4 2 1 0 3 4 3 3 3 3 2 2 3 3 3 5 5 6 7 6 5 6 7 6 7 7 7 8
-2 3 3 2 0 4 5 6 7 5 5 5 5 5 4 3 3 3 3 3 3 5 5 5 6 6 6 6 6 6 6 7 7
-2 -3 -3 2 4 3 1 2 3 2 4 6 6 6 5 5 4 4 3 3 3 3 4 4 4 5 5 5 6 6 6 6 6
1 1 1 -2 -1 -1 3 1 0 3 5 4 4 5 6 5 5 5 5 4 4 4 3 4 4 4 5 5 5 5 5 6 5
3 4 3 4 4 4 3 5 4 3 4 4 4 4 5 5 5 5 5 5 5 5 4 3 4 4 4 4 4 4 4 4 5
3 4 5 5 5 6 3 4 5 6 5 5 5 5 5 5 6 5 6 6 6 6 6 5 5 5 4 4 4 4 3 3 4
6 8 7 5 7 7 5 7 6 5 5 4 3 3 4 4 6 8 8 7 6 7 7 7 6 5 5 4 4 4 4 3 3
9 9 7 7 7 4 4 8 8 9 9 9 9 9 8 7 7 7 9 10 9 8 7 6 6 6 6 5 5 4 4 4 3
7 6 3 3 7 5 5 4 4 6 6 5 7 7 8 8 9 8 7 6 7 7 8 8 8 7 7 7 7 6 5 5 5
8 7 7 9 4 3 3 3 4 5 4 4 4 3 7 9 10 8 7 6 6 7 7 6 5 6 6 6 5 6 7 8 8
4 6 7 5 4 2 2 1 3 5 5 3 1 3 7 8 5 4 5 3 5 4 5 6 5 5 4 5 6 5 3 4 3
6 2 3 2 3 3 -1 2 4 4 2 5 2 3 7 5 5 5 4 5 6 6 4 4 4 4 4 4 6 13 10 8 11
-0 4 3 4 4 4 5 3 3 3 4 2 4 4 7 3 3 7 10 10 8 8 8 8 7 8 8 7 11 13 10 -3 -11
8 4 6 4 3 4 3 5 5 4 2 6 5 4 7 5 10 6 16 5 11 10 10 4 6 8 6 6 4 17 15 4 -7
Height
3191 3192 3193 3193 3193 3194 3195 3195 3195 3196 3197 3197 3198 3198 3198 3198 3198 3199 3198 3198 3197 3197 3196 3196 3195 3195 3194 3193 3193 3192 3192 3191 3191
3192 3193 3194 3195 3195 3196 3197 3197 3198 3199 3199 3199 3200 3200 3200 3200 3200 3199 3199 3199 3199 3198 3197 3197 3196 3195 3195 3194 3194 3193 3192 3191 3191
3194 3195 3195 3196 3196 3198 3199 3199 3200 3201 3201 3201 3201 3201 3201 3201 3200 3200 3200 3200 3199 3198 3198 3198 3197 3196 3196 3195 3194 3193 3192 3191 3190
3195 3195 3196 3197 3198 3199 3200 3200 3201 3202 3202 3202 3202 3202 3203 3202 3202 3201 3201 3200 3200 3199 3198 3198 3197 3196 3196 3195 3194 3193 3192 3191 3190
3195 3197 3198 3198 3199 3201 3201 3201 3202 3202 3203 3203 3203 3204 3203 3203 3202 3202 3202 3201 3200 3199 3199 3198 3198 3197 3196 3195 3194 3193 3192 3191 3190
3197 3198 3199 3200 3201 3202 3202 3202 3203 3204 3204 3204 3204 3204 3204 3203 3203 3202 3202 3201 3200 3199 3199 3198 3197 3196 3195 3194 3193 3192 3191 3190 3190
3196 3198 3199 3201 3202 3202 3203 3203 3204 3204 3205 3205 3205 3205 3204 3204 3203 3203 3202 3201 3200 3200 3199 3198 3197 3196 3195 3193 3192 3191 3189 3189 3188
3197 3198 3199 3201 3202 3203 3203 3203 3203 3204 3205 3205 3204 3204 3204 3203 3203 3202 3201 3201 3200 3199 3198 3197 3196 3195 3194 3193 3191 3190 3189 3187 3187
3196 3198 3199 3201 3201 3202 3202 3202 3202 3203 3204 3203 3203 3203 3203 3202 3202 3201 3200 3199 3198 3197 3197 3196 3195 3194 3193 3192 3190 3189 3187 3186 3185
3195 3196 3198 3199 3199 3200 3200 3201 3201 3201 3201 3201 3201 3201 3201 3200 3200 3199 3198 3197 3196 3195 3195 3194 3193 3192 3191 3190 3189 3187 3186 3185 3184
3193 3194 3195 3196 3197 3198 3198 3198 3199 3199 3199 3199 3199 3198 3198 3198 3197 3196 3196 3195 3194 3193 3192 3192 3191 3190 3189 3187 3186 3185 3184 3183 3182
3190 3191 3192 3193 3194 3195 3195 3195 3196 3196 3196 3196 3195 3195 3195 3194 3193 3193 3192 3191 3191 3190 3189 3189 3188 3187 3185 3184 3183 3182 3180 3179 3178
3187 3188 3189 3190 3191 3191 3192 3193 3193 3193 3193 3192 3191 3191 3191 3190 3190 3189 3189 3188 3187 3186 3185 3185 3184 3183 3181 3181 3179 3178 3177 3176 3175
3183 3184 3185 3187 3187 3188 3189 3189 3189 3189 3189 3188 3188 3187 3187 3186 3186 3185 3185 3184 3183 3182 3180 3180 3179 3177 3176 3175 3174 3173 3173 3171 3169
3179 3181 3182 3183 3184 3184 3185 3185 3185 3185 3184 3184 3184 3183 3182 3182 3182 3181 3180 3179 3178 3177 3176 3175 3174 3172 3171 3169 3168 3167 3165 3166 3165
3176 3177 3178 3179 3180 3180 3181 3181 3181 3180 3179 3179 3179 3178 3178 3178 3177 3176 3175 3174 3173 3173 3172 3170 3169 3167 3165 3164 3162 3161 3159 3157 3158
3171 3173 3174 3175 3176 3176 3176 3176 3176 3175 3174 3173 3172 3171 3174 3172 3171 3171 3170 3169 3168 3167 3166 3165 3163 3162 3160 3158 3156 3156 3154 3151 3148
3166 3168 3169 3169 3170 3171 3171 3170 3170 3169 3169 3167 3165 3162 3163 3164 3165 3165 3164 3163 3162 3161 3159 3159 3157 3155 3153 3151 3149 3148 3147 3144 3141
3161 3162 3163 3164 3164 3165 3165 3164 3163 3163 3162 3161 3159 3157 3155 3153 3152 3155 3155 3155 3154 3153 3152 3150 3149 3147 3146 3144 3143 3142 3140 3137 3133
3155 3156 3157 3158 3158 3158 3158 3157 3157 3155 3154 3154 3152 3151 3148 3147 3145 3141 3145 3146 3146 3145 3143 3142 3141 3139 3138 3135 3133 3132 3131 3129 3126